Regional Weather Roundup
Issued by NWS Spokane, WA

Home | Current Version | Previous Version | Text Only | Print | Product List | Glossary On
Versions: 1 2 3 4 5 6 7 8 9 10 11 12 13 14 15 16 17 18 19 20 21 22 23 24 25 26 27 28 29 30 31 32 33 34 35 36 37 38 39 40 41 42 43 44 45 46 47 48 49 50
000
NZUS01 KOTX 221910
RWROTX
EASTERN WASHINGTON/NORTHERN IDAHO ROUNDUP
NATIONAL WEATHER SERVICE, SPOKANE WA
1200 PM PDT FRI AUG 22 2014

Note: "fair" indicated few or no clouds below 12,000 feet with no
significant weather and/or obstructions to visibility.

...NORTHEAST WASHINGTON AND NORTHERN IDAHO PANHANDLE...

CITY           SKY/WX    TMP DP  RH WIND       PRES   REMARKS
SPOKANE INTL   PTSUNNY   66  53  63 VRB5      30.02S
SPOKANE DOWNTO PTSUNNY   67  53  61 CALM      30.02S
COEUR D ALENE  PTSUNNY   68  52  56 N18       30.01S
DEER PARK      CLOUDY    65  53  65 N6        30.03R
SANDPOINT      CLOUDY    64  50  59 N20G26    30.04S

...SOUTHEAST WASHINGTON AND SOUTHERN IDAHO PANHANDLE...

CITY           SKY/WX    TMP DP  RH WIND       PRES   REMARKS
WALLA WALLA    MOSUNNY   72  51  47 SW13      29.97F
PULLMAN/MOSCOW MOSUNNY   72  43  35 VRB5      29.99F
LEWISTON       PTSUNNY   74  47  38 VRB5      29.95F
LOWELL           N/A     76  51  41 SW3       29.89F

...COLUMBIA BASIN...

CITY           SKY/WX    TMP DP  RH WIND       PRES   REMARKS
EPHRATA        MOSUNNY   77  48  35 NE12G21   29.96F
MOSES LAKE     PTSUNNY   77  48  35 N15G22    29.96F
TRI CITIES     MOSUNNY   78  53  41 NW12G22   29.94F
HERMISTON      SUNNY     75  50  41 W6        29.96S
PENDLETON      MOSUNNY   72  46  39 NW9       29.97F

...EAST SLOPES CASCADES...

CITY           SKY/WX    TMP DP  RH WIND       PRES   REMARKS
THE DALLES     SUNNY     80  47  31 NW9       29.95F
YAKIMA         PTSUNNY   74  47  38 W3        29.98F
ELLENSBURG     SUNNY     77  46  33 S6        29.99F
WENATCHEE      MOSUNNY   74  46  36 W9        29.99F
OMAK           PTSUNNY   71  54  54 N15G24    30.03F

...SOUTHERN BRITISH COLUMBIA...

CITY           SKY/WX    TMP DP  RH WIND       PRES   REMARKS
PENTICTON      CLOUDY    66  55  68 N5        30.08S
CRANBROOK      CLOUDY    55  50  82 SW3       30.18R

...WESTERN MONTANA...

CITY           SKY/WX    TMP DP  RH WIND       PRES   REMARKS
MISSOULA       PTSUNNY   63  54  72 CALM      30.05F

...NEIGHBORING CITIES...

CITY           SKY/WX    TMP DP  RH WIND       PRES   REMARKS
SEATTLE        MOSUNNY   69  52  54 N9        30.08S
CALGARY        CLOUDY    52  46  82 NE13      30.30R



USA.gov is the U.S. government's official web portal to all federal, state and local government web resources and services.